Home   Weather   San Luis Obispo   Past weeks

Flag for USA Past Weather in San Luis Obispo, California, USA — Yesterday and Last 2 Weeks

93 °F


Feels Like: 89 °F
Forecast: 55 / 85 °F
Wind: 9 mph from North

Location: San Luis Obispo County-Mc Chesney Field

Current Time: Oct 20, 2016 at 5:35:54 PM

Latest Report: Oct 20, 2016 at 4:56 PM

Visibility: 10 mi

Pressure: 29.90 "Hg

Humidity: 16%

Dew Point: 40 °F

Location of San Luis ObispoLocation

Past Weather in San Luis Obispo — Graph


San Luis Obispo Temperature Yesterday

Maximum temperature yesterday: 86 °F (at 3:56 PM)
Minimum temperature yesterday: 63 °F (at 6:56 AM)
Average temperature yesterday: 74 °F

High & Low Weather Summary for the Past Weeks

High96 °F (Oct 20, 1:56 PM)97% (Oct 16, 5:56 AM)30.09 "Hg (Oct 16, 5:56 AM)
Low50 °F (Oct 10, 6:56 AM)9% (Oct 7, 1:56 PM)29.84 "Hg (Oct 7, 3:56 PM)
Average67 °F58%29.98 "Hg
* Reported Oct 5 3:56 PM — Oct 20 3:56 PM, San Luis Obispo, Weather by CustomWeather, © 2016

Note: Actual official high and low records may vary slightly from our data, if they occured in-between our weather recording intervals... More about our weather records


San Luis Obispo Weather History for the Previous 24 Hours

Scroll right to see more
Time TempWeatherWind HumidityBarometerVisibility
3:56 PM
Thu, Oct 20
95 °FSunny.9 mph14%29.90 "Hg10 mi
2:56 PM96 °FSunny.12 mph13%29.91 "Hg10 mi
1:56 PM96 °FSunny.7 mph12%29.93 "Hg10 mi
12:56 PM93 °FSunny.6 mph14%29.96 "Hg10 mi
11:56 AM90 °FSunny.5 mph16%29.98 "Hg10 mi
10:56 AM87 °FSunny.3 mph16%30.00 "Hg10 mi
9:56 AM81 °FSunny.7 mph21%30.01 "Hg10 mi
8:56 AM78 °FSunny.N/A25%30.02 "Hg10 mi
7:56 AM70 °FSunny.9 mph34%30.01 "Hg10 mi
6:56 AM67 °FClear.6 mph37%30.00 "Hg10 mi
5:56 AM67 °FClear.6 mph36%30.00 "Hg10 mi
4:56 AM64 °FClear.5 mph40%29.99 "Hg10 mi
3:56 AM67 °FClear.5 mph33%30.00 "Hg10 mi
2:56 AM73 °FClear.3 mph23%30.01 "Hg10 mi
1:56 AM74 °FClear.N/A21%30.01 "Hg10 mi
12:56 AM72 °FClear.5 mph26%30.02 "Hg10 mi
11:56 PM
Wed, Oct 19
73 °FClear.8 mph26%30.02 "Hg10 mi
10:56 PM74 °FClear.5 mph25%30.03 "Hg10 mi
9:56 PM74 °FClear.7 mph25%30.03 "Hg10 mi
8:56 PM76 °FClear.3 mph24%30.03 "Hg10 mi
7:56 PM74 °FClear.7 mph22%30.03 "Hg10 mi
6:56 PM78 °FClear.9 mph20%30.01 "Hg10 mi
5:56 PM82 °FSunny.8 mph20%30.01 "Hg10 mi
Weather by CustomWeather, © 2016

See weather overviewHow to use our weather pages